Flag for Germany Weather past 2 weeks in Hildesheim, Lower Saxony, Germany

Now
77 °F

Passing clouds.


Feels Like: 79 °F
Forecast: 64 / 78 °F
Wind: 9 mph from Southeast

Location: Braunschweig

Current Time: Aug 2, 2014 at 11:37:55 AM

Latest Report: Aug 2, 2014 at 10:50 AM


Visibility: N/A

Pressure: 29.80 "Hg

Humidity: 61%

Dew point: 63 °F

Location of HildesheimLocation

Historic Weather in Hildesheim — Graph

°F

Hildesheim temperature yesterday

Maximum temperature yesterday: 82 °F (at 3:20 PM)
Minimum temperature yesterday: 57 °F (at 6:50 AM)
Average temperature yesterday: 75 °F

Past Weeks' High & Low Weather Summary

 TemperatureHumidityPressure
High93 °F (Jul 20, 1:50 PM)100% (Jul 22, 7:20 AM)30.12 "Hg (Jul 22, 7:20 AM)
Low57 °F (Aug 1, 6:50 AM)24% (Jul 19, 4:50 PM)29.74 "Hg (Jul 29, 4:50 PM)
Average74 °F67%29.94 "Hg
* Reported Jul 18 10:20 AM — Aug 2 10:20 AM, Hildesheim, Weather by CustomWeather, © 2014

Note: Actual official high and low records may vary slightly from our data, if they occured in-between our weather recording intervals... More about our weather records

Advertising

Hildesheim weather history for previous 24 hours

 ConditionsComfort  
Time TempWeatherWind HumidityBarometerVisibility
10:20 AM
Aug 2
75 °FPassing clouds.9 mph65%29.80 "HgN/A
9:50 AM73 °FPassing clouds.8 mph69%29.80 "HgN/A
8:20 AM70 °FSunny.9 mph83%29.80 "Hg10 mi
9:50 PM
Aug 1
70 °FSunny.7 mph60%29.86 "Hg10 mi
9:20 PM72 °FSunny.8 mph57%29.86 "Hg10 mi
8:50 PM73 °FSunny.8 mph57%29.86 "Hg10 mi
8:20 PM73 °FSunny.8 mph53%29.86 "Hg10 mi
7:50 PM77 °FSunny.9 mph47%29.86 "Hg10 mi
7:20 PM77 °FSunny.10 mph44%29.86 "Hg10 mi
6:50 PM81 °FSunny.10 mph39%29.86 "Hg10 mi
6:20 PM81 °FSunny.10 mph39%29.86 "Hg10 mi
5:50 PM81 °FSunny.10 mph39%29.86 "Hg10 mi
5:20 PM81 °FSunny.10 mph42%29.86 "Hg10 mi
4:50 PM81 °FSunny.8 mph39%29.86 "Hg10 mi
4:20 PM81 °FPassing clouds.8 mph37%29.86 "HgN/A
3:50 PM81 °FSunny.10 mph42%29.86 "Hg10 mi
3:20 PM82 °FPassing clouds.10 mph40%29.89 "HgN/A
2:50 PM81 °FPassing clouds.7 mph37%29.89 "HgN/A
2:20 PM81 °FPassing clouds.8 mph37%29.89 "HgN/A
1:50 PM81 °FPassing clouds.8 mph39%29.89 "HgN/A
1:20 PM81 °FPassing clouds.6 mph32%29.89 "HgN/A
12:50 PM79 °FPassing clouds.8 mph39%29.89 "HgN/A
12:20 PM79 °FPassing clouds.7 mph39%29.92 "HgN/A
11:50 AM79 °FPassing clouds.7 mph42%29.92 "HgN/A
11:20 AM79 °FPassing clouds.8 mph42%29.92 "HgN/A
Weather by CustomWeather, © 2014

See weather overviewHow to use our weather pages